TimePDT,TemperatureF,Dew PointF,Humidity,Sea Level PressureIn,VisibilityMPH,Wind Direction,Wind SpeedMPH,Gust SpeedMPH,PrecipitationIn,Events,Conditions,WindDirDegrees,DateUTC
12:15 AM,53.6,50.0,88,30.03,5.0,SSW,13.8,-,N/A,,Haze,200,2013-10-01 07:15:00
12:35 AM,53.6,50.0,88,30.03,5.0,SSE,5.8,9.2,N/A,,Haze,160,2013-10-01 07:35:00
12:55 AM,51.8,50.0,94,30.03,7.0,South,9.2,-,N/A,,Mostly Cloudy,170,2013-10-01 07:55:00
1:15 AM,51.8,50.0,94,30.03,7.0,South,6.9,-,N/A,,Overcast,170,2013-10-01 08:15:00
1:35 AM,51.8,48.2,88,30.03,7.0,South,6.9,-,N/A,,Overcast,170,2013-10-01 08:35:00
1:55 AM,51.8,50.0,94,30.03,7.0,South,9.2,-,N/A,Rain,Rain,170,2013-10-01 08:55:00
2:15 AM,53.6,50.0,88,30.03,7.0,South,9.2,-,N/A,,Overcast,180,2013-10-01 09:15:00
2:35 AM,51.8,50.0,94,30.04,7.0,WSW,11.5,18.4,N/A,,Overcast,250,2013-10-01 09:35:00
2:55 AM,51.8,48.2,88,30.04,7.0,WSW,4.6,-,N/A,Rain,Light Rain,240,2013-10-01 09:55:00
3:15 AM,51.8,50.0,94,30.03,7.0,WSW,4.6,-,0.01,Rain,Light Rain,250,2013-10-01 10:15:00
3:35 AM,51.8,50.0,94,30.03,7.0,Calm,Calm,-,0.01,Rain,Light Rain,0,2013-10-01 10:35:00
3:55 AM,51.8,50.0,94,30.02,7.0,SSE,5.8,-,0.01,Rain,Light Rain,150,2013-10-01 10:55:00
4:15 AM,51.8,50.0,94,30.02,7.0,SSE,8.1,-,N/A,,Mostly Cloudy,160,2013-10-01 11:15:00
4:35 AM,51.8,50.0,94,30.02,7.0,South,9.2,-,N/A,,Overcast,170,2013-10-01 11:35:00
4:55 AM,53.6,51.8,94,30.03,5.0,SW,12.7,-,N/A,Rain,Light Rain,230,2013-10-01 11:55:00
5:15 AM,50.0,48.2,94,30.03,3.0,SSW,6.9,-,0.12,Rain,Rain,210,2013-10-01 12:15:00
5:35 AM,51.8,50.0,94,30.04,7.0,West,4.6,-,0.13,,Overcast,260,2013-10-01 12:35:00
5:55 AM,51.8,48.2,88,30.03,7.0,WNW,3.5,-,0.13,,Overcast,300,2013-10-01 12:55:00
6:15 AM,51.8,50.0,94,30.03,7.0,Calm,Calm,-,N/A,,Overcast,0,2013-10-01 13:15:00
6:35 AM,51.8,48.2,88,30.03,7.0,Calm,Calm,-,N/A,Rain,Rain,0,2013-10-01 13:35:00
6:55 AM,50.0,50.0,100,30.03,5.0,ESE,3.5,-,0.03,Rain,Rain,120,2013-10-01 13:55:00
7:15 AM,51.8,50.0,94,30.04,5.0,SSW,4.6,-,N/A,,Overcast,210,2013-10-01 14:15:00
7:35 AM,50.0,46.4,87,30.05,5.0,WNW,13.8,24.2,N/A,,Drizzle,290,2013-10-01 14:35:00
7:55 AM,50.0,46.4,87,30.05,5.0,Calm,Calm,-,0.01,Rain,Light Rain,0,2013-10-01 14:55:00
8:15 AM,50.0,48.2,94,30.05,7.0,Calm,Calm,-,N/A,,Overcast,0,2013-10-01 15:15:00
8:35 AM,50.0,48.2,94,30.06,7.0,Calm,Calm,-,N/A,Rain,Light Rain,0,2013-10-01 15:35:00
8:55 AM,50.0,50.0,100,30.06,7.0,Calm,Calm,-,N/A,,Overcast,0,2013-10-01 15:55:00
9:15 AM,46.4,46.4,100,30.08,2.0,NW,13.8,25.3,0.08,Rain,Light Rain,310,2013-10-01 16:15:00
9:35 AM,50.0,46.4,87,30.08,5.0,NNW,6.9,-,0.09,Rain,Light Rain,330,2013-10-01 16:35:00
9:55 AM,51.8,48.2,88,30.09,7.0,ESE,3.5,-,0.09,,Overcast,120,2013-10-01 16:55:00
10:15 AM,51.8,48.2,88,-9999,7.0,Calm,Calm,-,N/A,,Mostly Cloudy,0,2013-10-01 17:15:00
10:35 AM,53.6,50.0,88,30.11,5.0,South,3.5,-,N/A,,Haze,190,2013-10-01 17:35:00
10:55 AM,55.4,50.0,82,30.11,10.0,SSW,4.6,-,N/A,,Clear,210,2013-10-01 17:55:00
11:15 AM,55.4,50.0,82,30.12,10.0,SSW,8.1,-,N/A,,Scattered Clouds,210,2013-10-01 18:15:00
11:35 AM,57.2,50.0,77,30.13,5.0,SW,8.1,-,N/A,,Haze,220,2013-10-01 18:35:00
11:55 AM,57.2,50.0,77,30.14,7.0,SW,9.2,-,N/A,,Mostly Cloudy,230,2013-10-01 18:55:00
12:15 PM,57.2,51.8,82,30.14,5.0,WSW,9.2,-,N/A,,Haze,250,2013-10-01 19:15:00
12:35 PM,59.0,46.4,63,30.15,7.0,West,10.4,-,N/A,,Scattered Clouds,260,2013-10-01 19:35:00
12:55 PM,59.0,46.4,63,30.15,7.0,WSW,11.5,-,N/A,,Scattered Clouds,250,2013-10-01 19:55:00
1:15 PM,59.0,50.0,72,30.16,7.0,NW,8.1,-,N/A,,Mostly Cloudy,310,2013-10-01 20:15:00
1:35 PM,59.0,50.0,72,30.16,10.0,West,6.9,-,N/A,,Overcast,280,2013-10-01 20:35:00
1:55 PM,59.0,48.2,67,30.16,7.0,WSW,10.4,-,N/A,,Mostly Cloudy,250,2013-10-01 20:55:00
2:15 PM,59.0,48.2,67,30.17,7.0,West,10.4,-,N/A,,Scattered Clouds,260,2013-10-01 21:15:00
2:35 PM,59.0,46.4,63,30.17,7.0,West,11.5,-,N/A,,Clear,260,2013-10-01 21:35:00
2:55 PM,59.0,46.4,63,30.18,7.0,WSW,10.4,-,N/A,,Clear,250,2013-10-01 21:55:00
3:15 PM,59.0,48.2,67,30.18,7.0,West,6.9,-,N/A,,Mostly Cloudy,260,2013-10-01 22:15:00
3:35 PM,57.2,46.4,67,30.19,7.0,WSW,4.6,-,N/A,,Overcast,250,2013-10-01 22:35:00
3:55 PM,59.0,48.2,67,30.19,7.0,WSW,8.1,-,N/A,,Scattered Clouds,250,2013-10-01 22:55:00
4:15 PM,59.0,46.4,63,30.19,10.0,West,8.1,-,N/A,,Mostly Cloudy,280,2013-10-01 23:15:00
4:35 PM,59.0,44.6,59,30.20,10.0,West,6.9,-,N/A,,Scattered Clouds,280,2013-10-01 23:35:00
4:55 PM,59.0,44.6,59,30.20,10.0,West,6.9,-,N/A,,Scattered Clouds,270,2013-10-01 23:55:00
5:15 PM,59.0,44.6,59,30.20,10.0,WNW,5.8,-,N/A,,Scattered Clouds,290,2013-10-02 00:15:00
5:35 PM,57.2,44.6,63,30.20,10.0,WNW,4.6,-,N/A,,Clear,300,2013-10-02 00:35:00
5:55 PM,57.2,44.6,63,30.20,10.0,West,4.6,-,N/A,,Clear,270,2013-10-02 00:55:00
6:15 PM,55.4,44.6,67,30.20,10.0,Calm,Calm,-,N/A,,Clear,0,2013-10-02 01:15:00
6:35 PM,55.4,46.4,72,30.20,7.0,Calm,Calm,-,N/A,,Scattered Clouds,0,2013-10-02 01:35:00
6:55 PM,55.4,46.4,72,30.20,5.0,Calm,Calm,-,N/A,,Haze,0,2013-10-02 01:55:00
7:15 PM,51.8,48.2,88,30.21,10.0,Calm,Calm,-,N/A,,Scattered Clouds,0,2013-10-02 02:15:00
7:35 PM,50.0,46.4,87,30.21,10.0,Calm,Calm,-,N/A,,Mostly Cloudy,0,2013-10-02 02:35:00
7:55 PM,50.0,46.4,87,30.22,10.0,Calm,Calm,-,N/A,,Mostly Cloudy,0,2013-10-02 02:55:00
8:15 PM,50.0,46.4,87,30.22,10.0,Calm,Calm,-,N/A,,Scattered Clouds,0,2013-10-02 03:15:00
8:35 PM,46.4,46.4,100,30.23,10.0,Calm,Calm,-,N/A,,Scattered Clouds,0,2013-10-02 03:35:00
8:55 PM,46.4,46.4,100,30.23,10.0,Calm,Calm,-,N/A,,Mostly Cloudy,0,2013-10-02 03:55:00
9:15 PM,46.4,44.6,93,30.23,10.0,Calm,Calm,-,N/A,,Mostly Cloudy,0,2013-10-02 04:15:00
9:35 PM,46.4,44.6,93,30.23,10.0,Calm,Calm,-,N/A,,Scattered Clouds,0,2013-10-02 04:35:00
9:55 PM,46.4,44.6,93,30.24,10.0,Calm,Calm,-,N/A,,Clear,0,2013-10-02 04:55:00
10:15 PM,46.4,44.6,93,30.24,10.0,Calm,Calm,-,N/A,,Scattered Clouds,0,2013-10-02 05:15:00
10:35 PM,44.6,44.6,100,30.24,10.0,Calm,Calm,-,N/A,,Clear,0,2013-10-02 05:35:00
10:55 PM,44.6,44.6,100,30.23,10.0,Calm,Calm,-,N/A,,Clear,0,2013-10-02 05:55:00
11:15 PM,44.6,42.8,93,30.22,10.0,Calm,Calm,-,N/A,,Clear,0,2013-10-02 06:15:00
11:35 PM,44.6,42.8,93,30.22,10.0,Calm,Calm,-,N/A,,Clear,0,2013-10-02 06:35:00
11:55 PM,44.6,42.8,93,30.22,10.0,Calm,Calm,-,N/A,,Clear,0,2013-10-02 06:55:00